| time (UTC) | temp F | wind direction | speed knots | gust knots | rain 1hr in | rain 24hr in | rain mn in | humidity % | barometer mb |
| 20260505153034 | 63 | 293 | 3.5 | 5.2 | 0.00 | 0.00 | 0.00 | 53 | 1006.0 |
| 20260505151504 | 60 | 275 | 2.6 | 4.3 | 0.00 | 0.00 | 0.00 | 56 | 1006.2 |
| 20260505124511 | 45 | 274 | 0.0 | 1.7 | 0.00 | 0.00 | 0.00 | 87 | 1007.4 |
| 20260505123013 | 44 | 274 | 0.9 | 1.7 | 0.00 | 0.00 | 0.00 | 84 | 1007.8 |
| 20260505121527 | 42 | 274 | 0.0 | 1.7 | 0.00 | 0.00 | 0.00 | 88 | 1007.6 |
| 20260505120030 | 41 | 274 | 1.7 | 1.7 | 0.00 | 0.00 | 0.00 | 90 | 1007.9 |
| 20260505114505 | 41 | 264 | 0.0 | 1.7 | 0.00 | 0.00 | 0.00 | 90 | 1008.0 |
| 20260505113009 | 40 | 264 | 0.9 | 2.6 | 0.00 | 0.00 | 0.00 | 90 | 1008.2 |
| 20260505111513 | 39 | 94 | 0.9 | 0.9 | 0.00 | 0.00 | 0.00 | 92 | 1008.0 |
| 20260505101515 | 36 | 89 | 0.0 | 1.7 | 0.00 | 0.00 | 0.00 | 92 | 1007.8 |
| 20260505100016 | 36 | 89 | 0.0 | 0.9 | 0.00 | 0.00 | 0.00 | 92 | 1007.7 |
| 20260505094528 | 36 | 89 | 0.0 | 1.7 | 0.00 | 0.00 | 0.00 | 92 | 1007.7 |
| 20260505093029 | 35 | 89 | 0.0 | 0.9 | 0.00 | 0.00 | 0.00 | 92 | 1007.7 |
| 20260505091510 | 35 | 89 | 0.0 | 1.7 | 0.00 | 0.00 | 0.00 | 92 | 1007.8 |
| 20260505090013 | 35 | 89 | 0.0 | 1.7 | 0.00 | 0.00 | 0.00 | 92 | 1007.8 |
| 20260505084520 | 35 | 89 | 0.0 | 1.7 | 0.00 | 0.00 | 0.00 | 92 | 1007.7 |
| 20260505083027 | 36 | 89 | 0.0 | 0.9 | 0.00 | 0.00 | 0.00 | 92 | 1007.9 |
| 20260505081508 | 36 | 89 | 0.0 | 1.7 | 0.00 | 0.00 | 0.00 | 92 | 1007.9 |
| 20260505080028 | 36 | 89 | 0.9 | 1.7 | 0.00 | 0.00 | 0.00 | 92 | 1007.9 |
| 20260505074514 | 36 | 89 | 0.9 | 0.9 | 0.00 | 0.00 | 0.00 | 92 | 1007.8 |
| 20260505073021 | 37 | 89 | 0.9 | 0.9 | 0.00 | 0.00 | 0.00 | 91 | 1007.9 |
| 20260505071523 | 38 | 89 | 0.0 | 0.9 | 0.00 | 0.00 | 0.00 | 92 | 1007.9 |
| 20260505070009 | 38 | 89 | 0.0 | 0.0 | 0.00 | 0.00 | 0.00 | 92 | 1008.1 |
| 20260505064514 | 38 | 89 | 0.0 | 1.7 | 0.00 | 0.00 | 0.00 | 91 | 1008.0 |
| 20260505063018 | 38 | 89 | 0.0 | 1.7 | 0.00 | 0.00 | 0.00 | 92 | 1008.1 |
| 20260505061534 | 38 | 89 | 0.0 | 0.9 | 0.00 | 0.00 | 0.00 | 91 | 1008.1 |
| 20260505060030 | 39 | 89 | 0.9 | 1.7 | 0.00 | 0.00 | 0.00 | 92 | 1008.1 |
| 20260505054511 | 39 | 89 | 0.0 | 1.7 | 0.00 | 0.00 | 0.00 | 91 | 1008.1 |
| 20260505053017 | 39 | 89 | 0.9 | 0.9 | 0.00 | 0.00 | 0.00 | 91 | 1007.9 |
| 20260505051521 | 39 | 89 | 0.0 | 0.9 | 0.00 | 0.00 | 0.00 | 91 | 1007.8 |
| 20260505041527 | 41 | 89 | 0.0 | 1.7 | 0.00 | 0.00 | 0.00 | 90 | 1008.1 |
| 20260505040026 | 42 | 89 | 0.0 | 0.0 | 0.00 | 0.00 | 0.00 | 90 | 1008.3 |
| 20260505034532 | 42 | 89 | 0.0 | 1.7 | 0.00 | 0.00 | 0.00 | 91 | 1008.1 |
| 20260505033028 | 42 | 89 | 0.0 | 1.7 | 0.00 | 0.00 | 0.00 | 90 | 1008.1 |
| 20260505031518 | 42 | 89 | 0.0 | 1.7 | 0.00 | 0.00 | 0.00 | 90 | 1008.1 |
| 20260505030021 | 43 | 89 | 0.0 | 0.0 | 0.00 | 0.00 | 0.00 | 90 | 1008.1 |
| 20260505024538 | 43 | 89 | 0.0 | 0.0 | 0.00 | 0.00 | 0.00 | 90 | 1008.1 |
| 20260505023010 | 43 | 89 | 0.0 | 0.9 | 0.00 | 0.00 | 0.00 | 89 | 1008.1 |
| 20260505021517 | 43 | 89 | 0.0 | 0.9 | 0.00 | 0.00 | 0.00 | 90 | 1008.1 |
| 20260505020018 | 43 | 89 | 0.0 | 1.7 | 0.00 | 0.00 | 0.00 | 90 | 1008.0 |
| 20260505014525 | 43 | 89 | 0.0 | 1.7 | 0.00 | 0.00 | 0.00 | 88 | 1007.9 |
| 20260505013029 | 44 | 89 | 0.0 | 0.9 | 0.00 | 0.00 | 0.00 | 89 | 1008.0 |
| 20260505011508 | 44 | 89 | 0.9 | 1.7 | 0.00 | 0.00 | 0.00 | 89 | 1007.7 |
| 20260505010018 | 44 | 330 | 0.9 | 0.9 | 0.00 | 0.00 | 0.00 | 89 | 1007.5 |
| 20260505004522 | 44 | 330 | 0.0 | 1.7 | 0.00 | 0.00 | 0.00 | 87 | 1007.6 |
| 20260505003026 | 45 | 330 | 0.9 | 0.9 | 0.00 | 0.00 | 0.00 | 87 | 1007.3 |
| 20260505001534 | 45 | 330 | 0.9 | 1.7 | 0.00 | 0.00 | 0.00 | 87 | 1007.1 |
| 20260505000027 | 46 | 330 | 0.9 | 1.7 | 0.00 | 0.00 | 0.00 | 86 | 1006.9 |
| 20260504234516 | 47 | 330 | 0.9 | 0.9 | 0.00 | 0.00 | 0.00 | 85 | 1006.9 |
| 20260504233025 | 49 | 330 | 0.9 | 3.5 | 0.00 | 0.00 | 0.00 | 77 | 1006.8 |
| 20260504231531 | 52 | 315 | 3.5 | 6.1 | 0.00 | 0.00 | 0.00 | 69 | 1006.6 |
| 20260504230016 | 51 | 318 | 0.0 | 7.0 | 0.00 | 0.00 | 0.00 | 71 | 1006.2 |
| 20260504224517 | 52 | 340 | 1.7 | 7.8 | 0.00 | 0.00 | 0.00 | 70 | 1006.0 |
| 20260504223019 | 52 | 330 | 5.2 | 11.3 | 0.00 | 0.00 | 0.00 | 68 | 1005.9 |
| 20260504221524 | 52 | 327 | 5.2 | 9.6 | 0.00 | 0.00 | 0.00 | 69 | 1005.6 |
| 20260504220032 | 51 | 333 | 5.2 | 10.4 | 0.00 | 0.00 | 0.00 | 69 | 1005.6 |
| 20260504214512 | 52 | 326 | 7.0 | 9.6 | 0.00 | 0.00 | 0.00 | 69 | 1005.7 |
| 20260504213020 | 52 | 320 | 5.2 | 12.2 | 0.00 | 0.00 | 0.00 | 69 | 1005.6 |
| 20260504211524 | 52 | 352 | 7.0 | 12.2 | 0.00 | 0.00 | 0.00 | 69 | 1005.6 |
| 20260504210027 | 51 | 337 | 7.0 | 11.3 | 0.00 | 0.00 | 0.00 | 70 | 1005.6 |
| 20260504204528 | 51 | 310 | 6.1 | 9.6 | 0.00 | 0.00 | 0.00 | 72 | 1005.4 |
| 20260504203021 | 51 | 328 | 7.0 | 11.3 | 0.00 | 0.00 | 0.00 | 73 | 1005.5 |
| 20260504201522 | 50 | 323 | 7.0 | 12.2 | 0.00 | 0.00 | 0.00 | 74 | 1005.4 |
| 20260504200025 | 50 | 322 | 6.1 | 10.4 | 0.00 | 0.01 | 0.00 | 74 | 1005.4 |
| 20260504194537 | 50 | 317 | 8.7 | 13.0 | 0.00 | 0.01 | 0.00 | 73 | 1005.4 |
| 20260504193031 | 50 | 295 | 7.0 | 8.7 | 0.00 | 0.01 | 0.00 | 75 | 1005.4 |
| 20260504191516 | 48 | 293 | 4.3 | 7.8 | 0.00 | 0.01 | 0.00 | 79 | 1005.4 |
| 20260504190029 | 46 | 297 | 1.7 | 3.5 | 0.00 | 0.02 | 0.00 | 81 | 1005.5 |
| 20260504184533 | 47 | 278 | 2.6 | 4.3 | 0.00 | 0.03 | 0.00 | 80 | 1005.4 |
| 20260504183027 | 46 | 275 | 1.7 | 2.6 | 0.00 | 0.03 | 0.00 | 80 | 1005.4 |
| 20260504181516 | 46 | 275 | 1.7 | 3.5 | 0.00 | 0.04 | 0.00 | 79 | 1005.5 |
| 20260504180022 | 46 | 273 | 1.7 | 4.3 | 0.00 | 0.06 | 0.00 | 81 | 1005.4 |
| 20260504174504 | 46 | 278 | 2.6 | 3.5 | 0.00 | 0.06 | 0.00 | 81 | 1005.6 |
| 20260504173014 | 46 | 314 | 2.6 | 4.3 | 0.00 | 0.06 | 0.00 | 82 | 1005.6 |
| 20260504171516 | 46 | 316 | 3.5 | 6.1 | 0.00 | 0.06 | 0.00 | 81 | 1005.8 |